This demonstration page uses our WeatherBlox Daily Observations layout. Learn more.

Left ArrowRight Arrow

38.83388, -104.82136

Hourly Observations for March 3, 2021

Temp ( °F °C ) Dew Point ( °F °C ) Humidity (%) Winds ( mph kmh ) Pressure ( in mb ) Visibility ( mi km ) Precip ( " mm )
12:58 am 00:58 Clear 40 4.7 6 -14.6 23 23 NW 9 15 29.60 1003 10 16 0.00 0.00
1:58 am 01:58 Clear 38 3.4 8 -13.5 28 28 WNW 9 15 29.62 1003 10 16 0.00 0.00
2:58 am 02:58 Clear 38 3.3 8 -13.5 28 28 WNW 7 11 29.62 1003 10 16 0.00 0.00
3:58 am 03:58 Clear 37 2.6 8 -13.2 30 30 W 3 6 29.64 1004 10 16 0.00 0.00
4:58 am 04:58 Mostly Clear 37 2.6 7 -13.8 29 29 WSW 3 6 29.65 1004 10 16 0.00 0.00
5:58 am 05:58 Mostly Cloudy 36 2.1 9 -12.7 33 33 W 5 7 29.68 1005 10 16 0.00 0.00
6:58 am 06:58 Sunny 39 3.8 9 -13 28 28 WNW 5 7 29.69 1005 10 16 0.00 0.00
7:58 am 07:58 Sunny 44 6.6 7 -13.8 22 22 NNE 5 7 29.71 1006 10 16 0.00 0.00
8:58 am 08:58 Sunny 46 7.6 2 -16.9 16 16 N 6 9 29.70 1006 10 16 0.00 0.00
9:58 am 09:58 Sunny 47 8.1 7 -14 19 19 NNE 3 6 29.73 1007 10 16 0.00 0.00
11:58 am 11:58 Sunny 53 11.5 8 -13.6 16 16 ESE 8 13 29.68 1005 10 16 0.02 0.51
12:58 pm 12:58 Sunny 53 11.9 9 -13 16 16 ESE 8 13 29.66 1005 10 16 0.31 7.87
1:58 pm 13:58 Sunny 54 12.1 8 -13.6 15 15 SE 8 13 29.65 1004 10 16 0.00 0.00
2:58 pm 14:58 Sunny 54 12.2 7 -13.9 15 15 SE 10 17 29.65 1004 10 16 0.00 0.00
3:58 pm 15:58 Sunny 51 10.4 7 -13.9 17 17 SE 9 15 29.69 1005 10 16 0.00 0.00
4:58 pm 16:58 Sunny 50 9.8 3 -16.3 14 14 S 9 15 29.69 1005 10 16 0.00 0.00
5:58 pm 17:58 Clear 49 9.5 1 -17.3 13 13 S 8 13 29.70 1006 10 16 0.00 0.00
6:58 pm 18:58 Clear 48 9 2 -16.5 15 15 SSW 16 26 29.71 1006 10 16 0.00 0.00
7:58 pm 19:58 Clear 47 8.6 3 -15.9 16 16 SSW 14 22 29.67 1005 10 16 0.00 0.00
8:58 pm 20:58 Clear 46 8 3 -15.9 17 17 S 12 19 29.70 1006 10 16 0.00 0.00
9:58 pm 21:58 Clear 46 7.9 6 -14.7 19 19 SSW 13 20 29.70 1006 10 16 0.00 0.00
10:58 pm 22:58 Clear 44 6.9 6 -14.7 20 20 S 8 13 29.70 1006 10 16 0.00 0.00
11:58 pm 23:58 Clear 41 4.8 6 -14.4 24 24 SSE 5 7 29.96 1014 10 16 0.00 0.00

Powered by AerisWeather